Lid_Strength_Index
1 1 1 1 1 1 1 1 1 2 3 3 4 4 4 4 3 2 1 2 2 2
1 1 1 1 1 1 1 1 2 3 2 1 1 1 2 2 1 1 1 1 2 2
1 0 1 1 1 1 1 1 1 2 1 1 2 1 1 1 1 1 1 1 2 1
1 1 1 1 1 1 0 1 1 1 1 1 1 0 1 1 1 1 1 1 2 1
1 1 1 1 1 0 0 0 0 0 1 1 1 1 1 1 1 1 1 1 1 2
1 1 1 0 0 0 1 1 1 1 1 1 1 2 2 2 2 2 2 2 2 3
1 1 1 1 1 1 1 1 1 1 2 4 6 6 5 4 3 2 2 2 3 4
1 1 1 1 1 1 1 1 1 1 4 6 8 9 8 7 5 3 3 2 3 5
1 1 1 1 1 1 1 1 1 4 6 8 9 9 9 9 8 4 3 4 6 6
1 2 1 1 1 1 1 2 2 6 8 9 10 10 10 9 7 4 6 7 6 7
2 2 1 1 2 2 3 2 4 7 8 9 10 11 11 10 6 5 5 6 6 6
1 2 2 2 2 2 3 4 7 6 7 9 11 11 10 10 7 7 7 6 7 7
1 2 2 2 2 1 3 3 4 6 7 8 10 11 10 10 8 8 8 7 8 9
1 2 1 1 1 2 3 4 4 7 8 9 9 10 10 9 7 8 8 9 9 9